Location: R�o Tuerlos
(40.6704°N, 4.4622°W)
Time: 01:20:01
(UTC+00:00)

Daily predictions for brighter satellites

Satellite Brightness Start Highest point End
(mag) Time Altitude Azimuth Time Altitude Azimuth Time Altitude Azimuth
STARLINK-1240 4.5 00:00:17 10° NW 00:03:59 48° NNE 00:03:59 48° NNE
Cosmos 1763 Rocket 3.9 00:05:58 50° E 00:05:58 50° E 00:10:24 10° NNE
STARLINK-1216 4.4 00:05:15 10° NW 00:08:47 49° N 00:08:47 49° N
Cosmos 2227 Rocket 2.2 00:03:47 10° NNW 00:09:28 70° ENE 00:10:10 63° ESE
STARLINK-1237 4.5 00:10:13 10° NW 00:13:34 49° N 00:13:34 49° N
Cosmos 1356 Rocket 4.0 00:10:26 10° N 00:13:55 58° N 00:13:55 58° N
Nadezhda 1 Rocket 4.0 00:18:06 10° N 00:24:23 77° E 00:25:28 62° SSE
CZ-4 R/B 4.2 00:20:41 10° NNE 00:24:50 53° ENE 00:24:50 53° ENE
Cosmos 1300 4.2 00:21:46 10° NNW 00:24:09 32° NW 00:24:09 32° NW
Meteor 2-16 Rocket 4.5 00:27:14 59° SW 00:28:11 68° W 00:34:17 10° N
YAOGAN 11 4.5 00:32:04 59° NNW 00:32:04 59° NNW 00:35:38 10° NNW
Cosmos 1626 Rocket 4.0 00:34:39 56° NW 00:34:39 56° NW 00:38:22 10° N
CZ-2D R/B 4.3 00:31:57 10° ENE 00:34:04 12° E 00:35:02 12° E
USA 215 3.8 00:28:25 10° ESE 00:34:47 56° NE 00:41:09 10° NW
Meteor 1-21 Rocket 4.2 00:34:27 65° SE 00:34:55 68° E 00:40:39 10° NNE
Meteor 2-10 Rocket 3.8 00:29:56 10° N 00:34:55 52° ENE 00:35:16 51° E
Cosmos 540 Rocket 3.8 00:41:07 54° E 00:41:07 54° E 00:45:57 10° NNE
SeaSat 1 4.3 00:41:23 10° N 00:45:14 23° NW 00:47:20 18° W
SL-08 ROCKET BODY 4.3 00:45:02 61° WSW 00:45:45 66° W 00:51:35 10° N
Helios 1B rocket 2.9 00:46:57 10° NNE 00:50:24 61° N 00:50:24 61° N
Cosmos 1980 Rocket 2.2 00:51:50 63° SE 00:52:09 65° ESE 00:57:45 10° NNE
Uosat 12 SS-18 rocket 4.3 00:53:40 10° NNW 00:57:58 64° NE 00:58:02 64° ENE
Cosmos 1455 3.2 00:57:24 10° N 01:00:05 45° N 01:00:05 45° N
Cosmos 1745 Rocket 4.4 01:01:26 43° WSW 01:02:34 48° WNW 01:08:29 10° N
Cosmos 2369 3.9 01:02:04 52° WSW 01:03:00 59° WNW 01:08:37 10° NNE
Cosmos 1812 Rocket 4.2 01:00:33 10° NNW 01:04:13 48° WNW 01:04:13 48° WNW
Cosmos 1703 3.9 01:05:53 54° NNE 01:05:53 54° NNE 01:09:01 10° N
STARLINK-1264 4.5 01:07:26 43° NNE 01:07:26 43° NNE 01:10:14 10° NE
Cosmos 1937 Rocket 3.4 01:01:48 10° NNW 01:07:04 73° WSW 01:07:10 73° WSW
Cosmos 1825 Rocket 3.6 01:08:39 72° NNE 01:08:39 72° NNE 01:12:36 10° N
Lacrosse 4 Rocket 2.4 01:04:30 10° NW 01:07:20 38° NW 01:07:20 38° NW
STARLINK-1267 4.4 01:10:40 44° N 01:10:40 44° N 01:13:35 10° NE
Cosmos 2263 Rocket 3.7 01:06:26 10° N 01:11:22 31° ENE 01:15:58 11° ESE
SL-4 R/B 4.2 01:08:54 10° NW 01:13:13 31° NNE 01:17:26 10° E
Cosmos 2297 Rocket 3.4 01:10:38 10° NW 01:14:46 28° W 01:14:46 28° W
Cosmos 1898 Rocket 4.1 01:10:51 10° NNW 01:15:28 42° W 01:15:28 42° W
STARLINK-1207 4.4 01:17:09 44° N 01:17:09 44° N 01:20:20 10° NE
Cosmos 2360 4.5 01:17:45 49° WSW 01:18:52 58° WNW 01:24:30 10° NNE
CZ-4C R/B 3.6 01:16:43 21° W 01:19:08 31° NW 01:24:22 10° NNE
Cosmos 372 Rocket 4.2 01:14:27 10° NNW 01:19:35 64° ENE 01:20:47 49° SE
STARLINK-1266 4.4 01:20:25 43° NNW 01:20:25 43° NNW 01:23:43 10° NE
PSLV R/B 4.4 01:17:38 10° N 01:21:39 39° WNW 01:21:39 39° WNW
STARLINK-1299 4.5 01:24:06 43° E 01:24:06 43° E 01:27:18 10° ENE
STARLINK-1284 4.4 01:23:40 41° NNW 01:23:40 41° NNW 01:27:06 10° NE
BREEZE-M DEB (TANK) 4.4 01:24:14 10° NW 01:25:58 14° NNW 01:27:25 10° NNE
STARLINK-1258 4.5 01:26:59 39° NNW 01:26:59 39° NNW 01:30:31 10° NE
Spot 1 4.3 01:27:44 66° SSE 01:28:26 82° ENE 01:33:32 10° NNW
Alouette 2 Rocket 4.0 01:24:30 10° NNW 01:28:04 49° NW 01:28:04 49° NW
STARLINK-1273 4.5 01:30:32 41° E 01:30:32 41° E 01:33:36 10° ENE
Cosmos 1814 Rocket 4.2 01:29:12 53° WSW 01:29:59 60° WNW 01:35:15 10° NNE
Cosmos 2082 4.1 01:24:48 10° NW 01:30:00 44° WSW 01:30:00 44° WSW
Cosmos 2322 Rocket 3.3 01:29:42 28° SE 01:31:02 31° ESE 01:35:55 10° NE
Cosmos 2150 Rocket 4.3 01:27:06 10° NNW 01:32:13 61° ENE 01:33:54 40° SE
STARLINK-1288 4.2 01:35:19 47° E 01:35:19 47° E 01:38:36 10° ENE
SJ 16-02 3.5 01:35:06 10° WNW 01:36:30 15° WNW 01:36:30 15° WNW
Cosmos 1697 Rocket 4.0 01:36:19 24° W 01:38:19 30° WNW 01:43:16 10° N
Cosmos 2278 4.4 01:38:02 36° W 01:39:33 44° WNW 01:44:58 10° NNE
STARLINK-1308 4.0 01:40:08 55° E 01:40:08 55° E 01:43:39 10° ENE
Cosmos 841 Rocket 4.2 01:38:49 37° W 01:39:48 41° WNW 01:44:44 10° N
SL-19 R/B 4.4 01:34:35 10° N 01:40:16 70° WNW 01:41:48 49° SW
DELTA 2 DEB (DPAF) 4.0 01:40:14 71° SE 01:40:41 82° ENE 01:45:09 10° NNW
Cosmos 2181 Rocket 4.0 01:34:33 10° NNW 01:41:00 72° W 01:42:49 48° SSW
Resurs 1-4 Rocket 2.4 01:38:17 10° NNE 01:43:32 58° E 01:44:54 44° SSE
Cosmos 1400 Rocket 2.8 01:40:44 10° N 01:44:45 84° NW 01:44:45 84° NW
Cosmos 1125 Rocket 4.2 01:40:46 10° N 01:45:49 50° ENE 01:48:54 23° SE
Gblst 52 Del rocket 4.4 01:43:53 45° SW 01:46:02 89° NW 01:53:07 10° NE
STARLINK-1304 3.6 01:49:41 73° ESE 01:49:41 73° ESE 01:53:36 10° NE
Cosmos 1375 Rocket 4.5 01:43:13 10° NW 01:49:46 69° WSW 01:52:10 40° S
Cosmos 2084 Rocket 4.1 01:47:59 10° NW 01:51:25 43° W 01:51:25 43° W
Cosmos 2154 Rocket 4.5 01:49:51 31° SSE 01:52:41 55° E 01:58:43 10° NNE
Cosmos 2227 Rocket 4.1 01:49:36 10° WNW 01:51:58 15° W 01:51:58 15° W
STARLINK-48 4.1 01:53:48 45° NW 01:54:13 47° NNW 01:58:00 10° NE
STARLINK-1278 3.5 01:55:21 77° W 01:55:36 83° NW 01:59:53 10° NE
STARLINK-1280 3.6 01:57:08 73° W 01:57:27 81° NW 02:01:44 10° NE
SL-16 R/B 2.5 01:55:28 31° SSE 01:58:37 83° ENE 02:04:49 10° NNW
Cosmos 2298 Rocket 3.9 01:53:49 10° NNW 01:59:07 70° WSW 02:00:18 52° SSW
Meteor 1-27 4.1 01:53:35 10° N 01:59:11 86° E 02:01:19 40° SSE
Cosmos 2227 4.2 01:53:57 10° NNW 01:59:44 87° ENE 02:02:39 31° SSE
Cosmos 1241 Rocket 4.3 01:57:57 45° SSW 01:59:59 89° WNW 02:06:15 10° NNE
IRAS Rocket 4.5 02:00:20 45° SW 02:01:12 49° WSW 02:06:34 10° NNW
Iridium 2 4.2 01:58:55 10° N 02:02:38 53° E 02:03:11 48° ESE
NOSS 2-1 (E) 3.0 02:04:58 75° NNE 02:04:58 75° NNE 02:08:14 10° NE
STARLINK-1286 3.6 02:05:37 66° W 02:06:07 77° NW 02:10:18 10° NE
SL-16 R/B 2.2 02:04:36 45° S 02:06:23 77° ESE 02:12:05 10° NNE
MOZ.5/SAFIR/RUBIN 5/SL-8 3.7 02:07:55 55° SW 02:08:33 62° W 02:13:10 10° NNW
STARLINK-1281 3.6 02:08:48 63° W 02:09:21 75° NW 02:13:30 10° NE
STARLINK-37 4.4 02:13:33 33° ESE 02:13:33 33° ESE 02:16:29 10° ENE
STARLINK-1310 3.7 02:13:35 54° W 02:14:20 69° NW 02:18:29 10° NE
STARLINK-36 4.4 02:14:56 32° ESE 02:14:56 32° ESE 02:17:53 10° ENE
CZ-2D R/B 2.0 02:09:27 10° N 02:14:41 76° WNW 02:16:21 44° SSW
CZ-4C R/B 3.6 02:14:17 56° SW 02:14:50 61° W 02:19:15 10° NNW
Cosmos 2221 2.6 02:10:29 10° N 02:14:52 75° E 02:16:17 42° SSE
STARLINK-60 4.0 02:12:23 10° NW 02:15:28 46° NE 02:18:33 10° ESE
USA 215 3.5 02:15:22 32° S 02:17:51 44° SW 02:24:04 10° WNW
STARLINK-63 4.2 02:18:10 37° SE 02:18:10 37° SE 02:21:19 10° ENE
STARLINK-35 4.2 02:19:32 35° SE 02:19:32 35° SE 02:22:37 10° ENE
STARLINK-1319 3.9 02:18:21 47° W 02:19:19 63° NW 02:23:26 10° NE
GP-B 3.7 02:15:44 10° NNW 02:19:54 40° W 02:20:25 38° W
Nadezhda 3 Rocket 4.1 02:14:02 10° N 02:20:23 79° E 02:24:39 22° SSE
Cosmos 1315 Rocket 2.7 02:16:34 10° N 02:20:31 85° E 02:21:25 53° SSE
STARLINK-51 4.1 02:21:14 38° SE 02:21:14 38° SE 02:24:29 10° ENE
Cosmos 1842 Rocket 3.5 02:17:40 10° NNW 02:22:08 73° W 02:23:12 50° SSW
STARLINK-30 4.0 02:22:49 39° SE 02:22:49 39° SE 02:26:11 10° ENE
STARLINK-72 3.9 02:24:13 40° SE 02:24:13 40° SE 02:27:32 10° ENE
CBERS-1 4.2 02:19:11 10° NNE 02:24:18 66° ESE 02:26:39 32° S
STARLINK-1277 4.0 02:23:08 41° W 02:24:18 58° NW 02:28:24 10° NE
Shenzhou-11 Module 3.3 02:26:47 31° NE 02:26:47 31° NE 02:28:22 10° ENE
STARLINK-59 3.7 02:27:25 46° SE 02:27:29 46° SE 02:30:56 10° ENE
Cosmos 2058 2.9 02:27:00 45° S 02:28:15 79° E 02:32:28 10° N
Cosmos 2360 Rocket 2.8 02:25:44 27° SSE 02:28:32 50° ESE 02:33:58 10° NE
IRIDIUM 103 4.5 02:25:55 29° SSE 02:28:37 72° E 02:33:49 10° N
STARLINK-1010 4.5 02:28:17 34° SSE 02:28:59 37° SE 02:32:54 10° ENE
STARLINK-56 3.7 02:29:04 45° SE 02:29:15 46° SE 02:32:44 10° ENE
STARLINK-1276 4.1 02:27:56 35° W 02:29:19 53° NW 02:33:23 10° NE
STARLINK-73 3.6 02:30:38 47° SSE 02:30:52 48° SE 02:34:22 10° ENE
STARLINK-1019 4.4 02:30:59 33° SSE 02:31:41 36° SE 02:35:30 10° ENE
STARLINK-38 3.6 02:32:12 48° SSE 02:32:29 50° SE 02:36:01 10° ENE
STARLINK-65 3.5 02:33:46 49° SSE 02:34:08 52° SE 02:37:40 10° ENE
STARLINK-1305 4.3 02:32:42 31° W 02:34:17 49° NNW 02:38:19 10° NE
STARLINK-68 3.4 02:34:23 53° S 02:34:49 57° SE 02:38:24 10° ENE
STARLINK-1306 4.4 02:33:14 29° W 02:34:58 46° NNW 02:39:02 10° NE
STARLINK-53 3.4 02:35:24 52° S 02:35:50 57° SE 02:39:24 10° ENE
Cosmos 1295 Rocket 4.5 02:32:33 28° S 02:36:05 87° W 02:42:24 10° N
STARLINK-1012 4.3 02:35:47 35° SSE 02:36:39 40° SE 02:40:32 10° ENE
Cosmos 1980 Rocket 4.0 02:33:35 13° W 02:36:39 20° NW 02:40:45 10° N
STARLINK-50 3.6 02:37:26 47° S 02:38:05 54° SE 02:41:49 10° ENE
STARLINK-1262 4.4 02:37:30 27° W 02:39:19 45° NNW 02:43:19 10° NE
FALCON 9 R/B 4.2 02:36:00 19° WSW 02:41:22 43° S 03:04:23 10° SE
CZ-4B R/B 3.8 02:36:57 10° N 02:42:08 59° WNW 02:44:30 31° SW
Cosmos 2333 Rocket 4.0 02:37:57 10° SSE 02:42:17 23° ESE 02:46:40 10° NE
STARLINK-71 3.6 02:41:45 44° SSW 02:42:48 64° SE 02:46:48 10° ENE
Cosmos 2219 Rocket 4.0 02:42:06 10° SSE 02:46:25 23° ESE 02:50:44 10° NE
STARLINK-1026 4.0 02:45:20 36° S 02:46:33 49° SE 02:50:33 10° ENE
IRIDIUM 106 4.3 02:44:10 29° S 02:46:54 77° W 02:52:09 10° N
STARLINK-29 4.1 02:45:13 10° NW 02:48:18 44° NNE 02:51:21 10° ESE
STARLINK-1013 3.9 02:50:08 35° SSW 02:51:32 54° SE 02:55:35 10° ENE
ADEOS II 2.0 02:47:08 10° NNE 02:52:26 88° W 02:55:35 25° SSW
SL-4 R/B 2.2 02:48:33 10° NW 02:53:22 80° SW 02:57:57 10° SE
STARLINK-25 3.0 02:53:37 46° SW 02:54:33 84° SE 02:58:01 10° NE
ERS-2 3.9 02:51:34 10° SE 02:54:49 31° ENE 02:58:06 10° N
IRS-1D 3.6 02:49:59 10° N 02:55:12 65° WNW 02:58:00 27° SSW
AQUA 4.5 02:50:45 10° N 02:55:14 41° WNW 02:57:17 27° WSW
Cosmos 2263 Rocket 2.7 02:50:13 10° NW 02:55:19 37° WSW 02:57:35 26° SSW
IDEFIX/ARIANE 42P 4.1 02:51:10 10° NNE 02:55:50 31° E 03:00:27 10° SSE
STARLINK-1009 3.8 02:54:54 34° SSW 02:56:29 60° SE 03:00:35 10° ENE
Cosmos 2341 Rocket 4.0 02:52:36 21° S 02:57:02 84° W 03:03:24 10° N
Cosmos 1892 3.2 02:56:52 34° WSW 02:57:56 44° W 03:01:35 10° N
STARLINK-1015 3.7 02:59:41 32° SSW 03:01:26 66° SE 03:05:34 10° NE
ARIANE 5 R/B 2.7 02:56:35 10° NNE 03:01:35 67° ESE 03:05:23 17° S
STARLINK-24 3.5 03:03:58 29° WSW 03:05:53 80° NW 03:09:55 10° NE
STARLINK-1016 3.6 03:04:27 30° SW 03:06:24 74° SE 03:10:33 10° NE
CZ-2D R/B 4.3 03:02:23 10° NNE 03:06:33 49° E 03:10:18 13° S
USA 229 DEB 4.1 03:00:29 10° NW 03:07:33 50° WSW 03:14:51 10° S
USA 229 4.1 03:00:35 10° NW 03:07:39 50° WSW 03:14:59 10° S
Cosmos 1869 4.4 03:04:34 10° NNW 03:07:49 26° W 03:08:31 24° WSW
NOSS 3-1 (C) 4.4 03:01:02 10° NW 03:08:30 48° WSW 03:16:48 10° S
IRS-1C 4.1 03:03:14 10° N 03:08:36 78° WNW 03:12:23 20° SSW
STARLINK-1008 3.6 03:09:15 27° SW 03:11:24 81° SE 03:15:33 10° NE
STARLINK-81 3.4 03:12:44 26° WSW 03:14:36 69° NW 03:18:13 10° NE
Cosmos 2322 Rocket 3.1 03:11:31 19° WSW 03:14:56 36° WNW 03:20:07 10° N
STARLINK-54 3.5 03:14:25 24° WSW 03:16:21 60° NW 03:19:55 10° NE
STARLINK-1014 3.5 03:14:03 25° SW 03:16:22 88° SE 03:20:30 10° NE
SL-8 Rocket 4.0 03:11:29 15° S 03:16:44 80° W 03:23:02 10° N
NOSS 3-1 (A) 4.2 03:09:06 10° NW 03:16:49 63° WSW 03:25:28 10° SSE
STARLINK-77 3.5 03:15:52 24° WSW 03:17:51 64° NW 03:21:28 10° NE
Cosmos 1151 Rocket 4.2 03:14:24 10° N 03:18:37 45° ENE 03:22:49 10° SSE
Cosmos 2151 3.0 03:17:06 20° SSW 03:19:59 71° W 03:24:18 10° N
Lacrosse 5 rocket 2.9 03:17:38 13° S 03:20:25 25° SE 03:23:40 10° ENE
Cosmos 2218 Rocket 4.1 03:15:15 12° S 03:21:10 88° W 03:27:37 10° N
STARLINK-1025 3.6 03:18:49 23° SW 03:21:21 85° NW 03:25:31 10° NE
H-2A R/B 2.7 03:17:39 10° SSE 03:21:59 60° ENE 03:26:25 10° N
Cosmos 1766 Rocket 3.6 03:19:02 14° S 03:22:43 81° E 03:27:04 10° N
STARLINK-79 3.6 03:20:34 21° WSW 03:22:45 58° NW 03:26:21 10° NE
Resurs 1-4 Rocket 3.8 03:19:16 10° NNW 03:22:52 19° WNW 03:25:59 12° WSW
COBE Rocket 3.9 03:17:58 10° S 03:23:01 78° W 03:28:12 10° NNW
STARLINK-52 2.9 03:20:26 10° NW 03:23:39 86° NE 03:26:51 10° SE
STARLINK-78 3.7 03:22:08 20° WSW 03:24:24 55° NW 03:27:58 10° NE
Cosmos 1408 3.5 03:23:51 22° SW 03:25:32 33° WNW 03:28:54 10° NNW
Okean 3 Rocket 3.6 03:22:07 16° SSW 03:25:47 79° W 03:30:21 10° N
STARLINK-57 3.8 03:23:43 19° WSW 03:26:03 51° NW 03:29:35 10° NE
STARLINK-1017 3.6 03:23:34 21° WSW 03:26:18 78° NW 03:30:28 10° NE
STARLINK-49 3.8 03:25:12 19° WSW 03:27:34 52° NW 03:31:07 10° NE
STARLINK-27 3.8 03:26:50 18° WSW 03:29:18 50° NW 03:32:51 10° NE
STARLINK-74 3.9 03:28:23 17° WSW 03:30:55 49° NW 03:34:28 10° NE
STARLINK-1023 3.7 03:28:21 19° WSW 03:31:17 71° NW 03:35:25 10° NE
STARLINK-39 3.9 03:29:58 17° WSW 03:32:34 47° NNW 03:36:05 10° NE
Cosmos 1825 2.7 03:30:16 19° SW 03:32:34 43° W 03:36:10 10° N
Spot 4 Rocket 4.0 03:28:11 10° NNE 03:33:21 85° WNW 03:38:21 11° SSW
STARLINK-31 4.0 03:31:33 16° WSW 03:34:13 45° NNW 03:37:44 10° NE
STARLINK-1444 4.2 03:36:00 15° S 03:36:00 15° S 03:36:45 10° SSE
GEOS 3 Rocket 4.0 03:30:13 10° S 03:35:01 40° WSW 03:39:56 10° NW
STARLINK-1452 4.3 03:36:39 15° S 03:36:39 15° S 03:37:21 10° SSE
STARLINK-69 4.2 03:33:03 14° W 03:35:47 41° NNW 03:39:12 10° NE
STARLINK-1399 4.4 03:37:33 13° S 03:37:33 13° S 03:38:01 10° S
STARLINK-1393 4.5 03:37:36 13° S 03:37:36 13° S 03:38:03 10° S
STARLINK-1394 4.5 03:37:37 13° S 03:37:37 13° S 03:38:05 10° S
STARLINK-1395 4.5 03:37:43 13° S 03:37:43 13° S 03:38:07 10° S
STARLINK-1397 4.4 03:37:39 13° S 03:37:39 13° S 03:38:08 10° S
STARLINK-1414 4.5 03:37:42 13° S 03:37:42 13° S 03:38:08 10° S
STARLINK-1396 4.4 03:37:40 13° S 03:37:40 13° S 03:38:09 10° S
STARLINK-1408 4.5 03:37:46 13° S 03:37:46 13° S 03:38:11 10° S
STARLINK-1404 4.4 03:37:45 14° S 03:37:45 14° S 03:38:15 10° S
STARLINK-1416 4.4 03:37:46 13° S 03:37:46 13° S 03:38:15 10° S
STARLINK-1406 4.5 03:37:52 13° S 03:37:52 13° S 03:38:17 10° S
STARLINK-1415 4.4 03:37:45 14° S 03:37:45 14° S 03:38:18 10° S
STARLINK-1007 3.8 03:33:11 17° WSW 03:36:19 65° NW 03:40:27 10° NE
STARLINK-1401 4.4 03:37:48 14° S 03:37:48 14° S 03:38:21 10° S
STARLINK-1450 4.4 03:37:47 14° S 03:37:47 14° S 03:38:22 10° S
STARLINK-1417 4.4 03:37:51 14° S 03:37:51 14° S 03:38:25 10° S
STARLINK-1402 4.4 03:37:53 14° S 03:37:53 14° S 03:38:26 10° S
STARLINK-1413 4.4 03:37:52 14° S 03:37:52 14° S 03:38:26 10° S
STARLINK-1419 4.4 03:37:54 14° S 03:37:54 14° S 03:38:27 10° S
STARLINK-1422 4.4 03:37:59 14° S 03:37:59 14° S 03:38:33 10° S
STARLINK-1453 4.3 03:37:58 14° S 03:37:58 14° S 03:38:35 10° S
STARLINK-1398 4.3 03:37:58 15° S 03:37:58 15° S 03:38:38 10° S
STARLINK-1420 4.3 03:38:02 14° S 03:38:02 14° S 03:38:38 10° S
STARLINK-1440 4.4 03:38:05 14° S 03:38:05 14° S 03:38:40 10° S
STARLINK-1460 4.3 03:38:04 14° S 03:38:04 14° S 03:38:41 10° S
STARLINK-1436 (VISORSAT) 4.2 03:38:02 15° S 03:38:02 15° S 03:38:45 10° S
STARLINK-1410 4.4 03:38:09 14° S 03:38:09 14° S 03:38:45 10° S
STARLINK-1423 4.4 03:38:11 14° S 03:38:11 14° S 03:38:45 10° S
STARLINK-1421 4.4 03:38:11 14° S 03:38:11 14° S 03:38:45 10° S
STARLINK-1400 4.3 03:38:09 14° S 03:38:09 14° S 03:38:46 10° S
STARLINK-1454 4.3 03:38:11 14° S 03:38:11 14° S 03:38:47 10° S
STARLINK-1458 4.3 03:38:14 14° S 03:38:14 14° S 03:38:51 10° S
STARLINK-1445 4.3 03:38:14 15° S 03:38:14 15° S 03:38:54 10° S
STARLINK-1405 4.4 03:38:23 13° S 03:38:23 13° S 03:38:53 10° S
STARLINK-1407 4.3 03:38:17 14° S 03:38:17 14° S 03:38:55 10° S
STARLINK-1446 4.3 03:38:17 14° S 03:38:17 14° S 03:38:56 10° S
STARLINK-1370 4.3 03:38:20 14° S 03:38:20 14° S 03:38:58 10° S
STARLINK-1439 4.4 03:38:27 13° S 03:38:27 13° S 03:38:58 10° S
STARLINK-1409 4.3 03:38:23 14° S 03:38:23 14° S 03:38:59 10° S
STARLINK-1456 4.3 03:38:22 14° S 03:38:22 14° S 03:39:00 10° S
STARLINK-1451 4.3 03:38:23 14° S 03:38:23 14° S 03:39:00 10° S
STARLINK-1457 4.3 03:38:22 14° S 03:38:22 14° S 03:39:00 10° S
STARLINK-1447 4.3 03:38:22 14° S 03:38:22 14° S 03:39:01 10° S
STARLINK-1455 4.3 03:38:24 14° S 03:38:24 14° S 03:39:01 10° S
STARLINK-1437 4.3 03:38:25 14° S 03:38:25 14° S 03:39:04 10° S
STARLINK-1441 4.3 03:38:24 15° S 03:38:24 15° S 03:39:04 10° S
STARLINK-1443 4.3 03:38:26 15° S 03:38:26 15° S 03:39:08 10° S
STARLINK-1418 4.3 03:38:29 15° S 03:38:29 15° S 03:39:09 10° S
STARLINK-1351 4.3 03:38:28 15° S 03:38:28 15° S 03:39:09 10° S
STARLINK-1403 4.3 03:38:29 15° S 03:38:29 15° S 03:39:09 10° S
STARLINK-1434 4.3 03:38:29 15° S 03:38:29 15° S 03:39:10 10° S
STARLINK-1442 4.3 03:38:30 15° S 03:38:30 15° S 03:39:11 10° S
STARLINK-1433 4.3 03:38:33 14° S 03:38:33 14° S 03:39:13 10° S
STARLINK-1448 4.3 03:38:32 15° S 03:38:32 15° S 03:39:13 10° S
STARLINK-1449 4.3 03:38:34 15° S 03:38:34 15° S 03:39:16 10° S
STARLINK-1438 4.3 03:38:39 14° S 03:38:39 14° S 03:39:17 10° S
STARLINK-1411 4.3 03:38:45 15° S 03:38:45 15° S 03:39:25 10° S
STARLINK-1412 4.3 03:38:44 15° S 03:38:44 15° S 03:39:26 10° S
STARLINK-21 4.1 03:34:42 14° WSW 03:37:31 42° NNW 03:40:59 10° NE
SL-08 R/B 3.6 03:34:01 10° S 03:38:25 43° W 03:42:49 10° NNW
STARLINK-45 4.3 03:36:23 13° W 03:39:19 38° NNW 03:42:45 10° NE
STARLINK-1048 3.9 03:37:56 15° WSW 03:41:17 60° NW 03:45:23 10° NE
STARLINK-76 4.3 03:39:24 12° W 03:42:26 39° NNW 03:45:52 10° NE
Cosmos 1818 4.3 03:37:44 10° S 03:42:54 48° ESE 03:48:08 10° NE
SL-16 R/B 4.2 03:40:34 12° WSW 03:42:54 14° W 03:46:05 10° WNW
STARLINK-70 4.4 03:39:57 12° W 03:43:04 37° NNW 03:46:31 10° NE
Cosmos 2237 Rocket 4.2 03:38:44 10° SSE 03:43:10 24° ESE 03:47:38 10° NE
STARLINK-23 4.3 03:40:59 12° W 03:44:04 38° NNW 03:47:30 10° NE
Cosmos 1538 Rocket 4.2 03:39:44 13° SSW 03:44:29 66° WNW 03:49:52 10° NNE
STARLINK-32 4.3 03:42:18 11° W 03:45:23 36° NNW 03:48:44 10° NE
STARLINK-1049 4.1 03:42:44 13° WSW 03:46:17 55° NW 03:50:22 10° NE
CZ-4C R/B 3.0 03:43:05 10° S 03:46:43 84° WSW 03:50:21 10° NNW
STARLINK-40 4.4 03:44:06 11° W 03:47:20 36° NNW 03:50:43 10° NE
STARLINK-44 4.5 03:45:37 10° W 03:48:55 35° NNW 03:52:17 10° NE
Cosmos 1844 Rocket 2.7 03:44:27 10° NNW 03:50:00 65° WSW 03:55:29 10° S
SL-16 R/B 4.1 03:47:27 10° W 03:51:10 17° NW 03:54:52 10° N
STARLINK-1051 4.2 03:47:30 12° WSW 03:51:15 50° NNW 03:55:18 10° NE
STARLINK-60 4.5 03:49:09 10° W 03:51:17 17° SW 03:53:25 10° S
MSX 4.1 03:46:45 10° NNE 03:52:31 73° ESE 03:58:13 10° S
FALCON 9 DEB 3.0 03:50:25 10° NW 03:53:53 82° SW 03:57:20 10° SE
Cosmos 1340 3.4 03:50:50 10° S 03:54:29 53° E 03:58:10 10° NNE
COSMOS 2428 2.8 03:49:21 10° SSW 03:55:02 81° ESE 04:00:44 10° NNE
Cosmos 1743 Rocket 4.3 03:51:06 10° S 03:55:22 53° E 03:59:38 10° NNE
STARLINK-1057 4.4 03:54:40 10° SSW 03:58:35 43° SE 04:02:30 10° ENE
Shenzhou-11 Module 1.6 03:58:08 10° WNW 04:00:34 72° NNE 04:03:00 10° E
STARLINK-1028 4.5 03:57:17 10° WSW 04:01:15 43° NNW 04:05:14 10° NE
STARLINK-1034 4.3 03:59:33 10° SSW 04:03:32 47° SE 04:07:31 10° ENE
Cosmos 1933 3.5 04:04:33 10° NNW 04:08:29 52° W 04:12:23 10° S
STARLINK-1068 4.2 04:04:29 10° SSW 04:08:30 52° SE 04:12:32 10° ENE
STARLINK-1352 4.4 04:05:29 10° NW 04:09:26 55° NE 04:13:21 10° ESE
Cosmos 2278 Rocket 3.8 04:06:50 10° N 04:12:12 41° ENE 04:17:32 10° SE
Cosmos 2360 Rocket 3.6 04:08:14 10° WSW 04:12:48 25° NW 04:17:23 10° N
Cosmos 1328 Rocket 3.9 04:09:05 10° NNW 04:13:15 44° W 04:17:22 10° SSW
STARLINK-1027 4.0 04:09:25 10° SW 04:13:28 58° SE 04:17:33 10° ENE
CZ-2C R/B 3.2 04:08:42 10° NNE 04:13:51 58° E 04:18:54 10° S
STARLINK-1368 4.2 04:10:16 10° NW 04:14:15 61° NE 04:18:14 10° ESE
Centaur D-1A AC-31 4.2 04:14:21 10° W 04:46:53 34° SW 04:53:13 10° SSE
